Theta_e
321 320 320 319 318 318 318 320 317 316 318 319 319 316 313 309 309 307 305 305 307 306 304 303 302 301 300 299 298 296 295 295 293 292 292 292 292 292 291 289 288 287 286 284
316 317 317 316 316 316 319 318 319 319 318 319 316 317 312 310 309 307 306 304 306 305 303 302 300 300 299 298 297 295 294 293 292 291 291 291 291 291 289 289 288 287 286 285
318 318 318 316 314 313 314 318 317 318 318 315 316 317 314 312 309 307 306 304 303 305 303 301 299 298 297 297 296 295 293 292 291 291 291 291 291 289 288 288 287 287 286 285
317 318 318 315 315 314 313 314 313 318 316 314 315 318 314 311 310 308 306 303 302 302 302 300 298 297 297 296 295 294 293 292 290 290 290 289 289 289 287 287 286 286 286 285
320 317 318 316 315 315 316 314 314 312 312 314 315 315 313 311 311 308 305 303 301 300 300 299 298 296 295 295 294 293 292 291 290 289 290 289 288 288 286 286 285 285 285 285
315 313 313 315 315 314 314 313 312 311 309 310 310 317 313 313 312 309 306 304 302 301 300 298 297 296 295 294 293 292 292 291 290 290 289 289 288 287 286 286 285 285 285 285
314 313 313 314 314 314 312 311 314 313 314 314 315 316 314 310 311 308 306 304 302 301 299 298 296 295 294 294 293 292 291 291 291 290 288 287 287 286 286 285 285 285 285 285
313 314 313 314 314 313 312 310 312 314 315 314 315 318 313 308 308 307 306 304 302 300 299 297 296 295 294 293 293 292 291 291 290 289 287 286 286 285 285 285 285 285 285 285
316 314 311 311 311 310 313 311 311 312 311 310 313 313 311 308 307 307 305 303 302 299 297 296 295 295 294 294 293 292 291 289 288 287 286 285 285 285 285 285 285 285 285 284
313 312 312 312 309 309 310 310 311 311 314 314 313 315 315 310 308 307 306 303 302 299 297 296 295 294 294 293 293 291 289 287 286 286 285 285 285 285 284 284 285 285 285 285
313 311 312 310 309 309 311 309 309 310 312 310 311 311 313 311 309 308 305 304 302 299 297 295 295 294 294 294 292 289 288 287 286 285 285 284 284 284 284 284 285 285 285 285
312 313 311 311 311 309 309 310 311 312 312 313 312 312 309 309 308 306 305 303 300 298 296 295 294 294 294 293 289 288 287 286 286 285 284 284 284 283 284 284 285 285 285 285
310 313 312 311 312 312 309 308 309 311 309 310 310 308 309 308 307 306 304 302 301 298 296 294 294 294 293 290 288 288 287 286 285 284 284 283 283 283 283 284 284 284 285 285
312 314 315 314 315 314 313 311 309 310 309 309 309 311 310 308 307 305 304 302 300 298 297 294 294 293 291 289 289 287 286 286 285 284 284 283 283 283 283 283 283 284 284 285
314 315 316 315 315 314 313 311 309 309 308 309 309 308 312 308 307 305 303 301 300 298 297 294 293 292 290 289 288 287 286 285 285 284 284 283 282 282 282 283 282 283 283 284
312 313 314 314 314 313 313 312 310 310 310 309 308 311 307 307 304 304 303 302 301 298 296 295 294 290 290 289 288 287 286 285 284 284 283 282 281 281 282 281 281 282 281 281
313 314 313 314 315 314 314 313 313 311 309 307 308 308 306 306 306 305 303 303 300 298 295 294 292 290 290 289 287 286 285 284 283 283 282 282 281 280 281 280 279 280 279 279
314 315 313 314 313 312 313 311 309 308 307 307 309 307 306 304 301 301 300 299 297 296 294 293 291 291 290 288 286 285 284 283 283 282 282 281 281 280 280 278 277 278 277 277
314 313 313 313 314 312 310 308 309 308 307 307 308 305 303 301 300 299 298 297 295 294 293 292 291 291 289 287 285 285 283 282 282 281 281 281 280 279 278 277 276 276 276 276
312 314 314 309 312 312 311 308 308 305 306 306 306 304 303 302 303 300 296 295 294 293 292 292 291 289 287 285 285 284 282 281 281 281 281 281 280 280 279 277 277 276 276 275
313 312 314 310 311 311 311 310 307 309 308 307 306 304 303 303 301 297 295 294 293 292 292 290 287 287 285 285 285 282 281 281 281 281 281 281 280 280 279 278 277 276 276 275
313 313 312 313 313 313 309 307 308 306 307 306 306 303 301 298 297 296 294 293 292 292 291 287 285 284 284 284 283 281 281 281 281 281 281 280 280 280 279 278 278 277 276 276
314 313 313 313 312 309 307 309 308 305 306 306 305 302 300 299 297 295 294 293 292 292 289 286 285 284 282 280 279 281 281 281 281 280 280 280 280 279 279 279 279 277 277 276
312 312 313 312 311 309 308 307 306 306 306 305 304 302 301 299 296 294 293 292 291 291 288 285 284 283 280 280 281 281 281 282 280 280 280 280 279 279 278 278 279 278 277 276
310 309 310 309 309 308 306 306 304 304 304 304 303 302 300 297 295 294 292 292 291 288 286 285 284 281 279 281 281 280 280 280 280 280 279 279 279 278 278 278 278 278 277 277
308 309 308 307 308 308 307 305 304 303 303 302 302 300 298 296 295 293 292 292 289 286 285 284 281 279 281 281 281 280 280 279 280 279 278 278 278 278 278 277 277 278 278 277
Wind_Speed
6 5 4 5 5 4 5 11 8 4 5 5 10 8 11 9 13 12 10 10 11 12 16 22 21 20 20 20 21 22 23 20 22 27 25 25 25 23 19 23 25 30 33 35
6 3 4 4 6 6 6 10 3 2 6 6 7 10 6 13 12 14 15 11 14 11 11 17 21 21 22 19 18 18 19 19 22 24 24 19 19 17 18 21 24 29 32 34
6 5 1 5 5 9 3 6 5 6 3 6 7 4 5 1 9 8 6 9 12 13 12 14 16 21 21 21 17 15 17 20 22 19 21 22 18 15 20 22 21 26 28 31
5 0 2 4 4 4 4 1 4 6 4 4 6 4 6 7 9 8 8 8 9 11 13 17 17 20 19 18 17 15 18 21 21 18 21 22 22 16 20 20 23 23 25 28
3 4 4 4 3 2 4 2 2 3 4 1 4 3 4 10 8 9 6 7 7 8 13 14 18 20 17 15 17 14 17 20 18 19 20 21 20 17 18 20 24 24 26 27
4 3 3 3 2 3 3 3 7 4 3 2 6 11 4 11 7 9 7 8 10 12 13 17 19 16 15 13 14 14 14 16 16 16 18 19 18 17 19 21 25 26 26 26
4 2 1 3 3 4 5 5 3 2 2 6 3 5 1 6 7 15 14 9 10 12 11 13 15 15 13 12 12 16 12 14 16 16 16 18 17 17 19 20 23 26 26 24
5 2 4 1 3 6 4 6 5 5 3 4 3 3 3 1 12 13 11 11 12 10 9 12 15 14 10 7 8 15 15 17 15 13 15 17 16 16 18 19 21 23 20 24
5 2 1 3 2 5 3 3 4 3 2 2 2 2 4 4 8 10 11 10 10 9 8 11 14 12 9 7 6 13 13 13 14 13 15 17 15 17 18 19 21 22 21 24
6 4 3 2 2 2 3 2 2 2 2 4 3 3 4 13 13 11 10 11 10 9 9 11 13 11 9 7 5 9 12 13 13 13 16 16 15 17 17 18 21 20 23 24
4 4 3 3 4 6 1 1 2 3 4 4 2 5 4 17 16 15 10 11 12 10 9 10 13 10 7 6 8 9 11 12 13 13 15 15 15 18 18 19 20 20 23 24
0 5 3 3 1 1 2 4 4 4 3 1 3 6 5 9 13 14 11 11 10 10 9 14 13 8 5 8 9 9 11 12 12 13 15 15 16 19 19 21 21 22 23 24
3 2 3 5 5 4 2 4 3 4 3 4 4 5 4 8 12 12 13 11 10 10 10 12 10 7 7 9 8 10 10 11 11 12 14 15 18 20 20 22 24 25 25 23
4 3 5 7 3 3 3 3 3 5 3 3 6 3 4 5 12 10 11 10 10 10 10 8 8 7 10 9 8 9 10 11 11 12 14 15 18 20 21 23 25 26 24 19
4 4 2 2 0 0 2 4 3 5 5 5 5 5 6 13 13 12 13 12 12 10 9 7 7 10 9 8 9 10 11 11 11 13 15 17 17 20 24 23 24 24 24 22
3 2 2 3 6 4 2 4 3 3 3 6 3 3 1 6 8 10 14 14 12 10 9 8 10 12 9 9 9 10 12 12 11 13 15 15 18 22 24 23 24 22 23 22
3 4 3 2 4 5 5 0 2 1 1 3 4 5 6 9 12 12 12 12 12 11 10 8 11 12 10 9 13 14 12 12 13 13 13 15 19 21 21 24 23 22 24 21
6 4 2 2 3 1 4 4 3 3 4 5 4 11 7 8 5 6 6 13 12 11 10 11 14 12 9 14 15 13 11 12 12 13 13 17 17 20 21 24 23 22 22 22
4 4 3 3 2 5 2 3 2 3 3 4 8 10 12 10 6 6 6 8 9 11 16 14 13 11 11 15 13 11 12 12 13 13 13 17 14 20 21 24 24 22 23 25
7 6 4 2 4 5 4 2 2 3 4 4 10 12 13 7 3 4 7 14 15 18 17 15 12 14 16 13 10 11 11 11 12 12 13 15 11 18 20 21 24 23 24 22
3 3 4 2 1 6 6 4 2 2 5 2 7 8 8 4 2 12 16 13 18 18 19 17 20 18 16 11 8 12 10 10 10 12 11 14 10 15 19 20 22 25 26 24
6 6 4 3 2 6 5 4 5 5 2 6 4 4 8 12 13 13 13 15 18 19 17 21 21 18 12 7 6 10 10 8 10 12 12 13 10 13 17 20 21 22 27 24
2 6 6 7 5 5 4 4 3 5 6 5 7 7 14 15 11 13 11 16 17 19 17 21 19 15 11 9 9 10 7 6 7 11 13 14 12 12 14 19 20 19 25 22
2 3 3 4 2 5 5 4 4 3 5 7 7 13 13 13 14 13 13 15 16 15 19 20 17 13 12 10 10 9 10 7 10 12 12 12 13 13 15 18 19 15 22 22
4 3 5 2 6 9 6 2 6 7 8 11 11 13 14 15 13 14 14 17 16 17 21 18 15 13 13 12 10 9 8 9 10 11 11 11 12 13 15 17 20 16 18 23
2 5 4 5 4 5 3 2 7 9 8 9 14 11 16 23 16 19 16 18 21 21 20 17 14 14 16 12 9 8 9 9 8 11 12 11 12 13 15 16 18 17 13 16
Wind_Direction
2 73 148 190 184 232 192 144 144 198 164 114 166 162 165 157 140 144 144 137 128 118 114 105 94 83 72 56 43 36 35 36 30 24 24 25 19 26 25 22 23 23 21 23
28 142 215 143 66 99 84 122 108 333 129 94 150 177 147 163 160 158 148 143 136 130 116 103 93 83 72 63 47 46 45 39 29 28 31 22 28 27 24 15 19 18 17 20
149 202 128 109 63 92 72 149 180 174 150 44 99 356 155 25 124 135 127 135 132 145 130 112 97 86 74 63 52 52 53 39 28 28 26 24 27 31 25 20 15 15 15 16
113 255 127 113 95 125 146 182 119 129 103 183 181 223 214 162 142 144 137 129 127 128 116 111 101 86 77 66 54 64 42 28 24 31 31 31 26 26 26 21 14 14 13 15
228 129 91 82 155 105 202 89 71 124 172 146 216 102 255 153 174 170 153 138 132 112 118 115 107 96 80 63 57 52 32 25 34 39 31 27 29 27 22 21 14 13 14 16
118 83 89 156 93 97 147 58 34 45 78 328 232 182 224 185 174 160 151 147 130 115 113 114 107 94 77 61 51 34 28 30 33 26 29 26 26 24 22 20 15 11 10 14
43 11 28 106 87 18 76 61 5 355 340 226 51 104 216 304 190 159 157 156 125 124 120 122 115 98 79 65 49 30 33 20 18 19 33 33 30 27 23 18 13 12 13 12
143 255 172 178 160 185 182 156 159 221 213 263 34 171 253 117 112 131 145 137 119 116 124 120 119 102 81 78 56 37 35 19 31 40 36 32 28 26 23 17 15 15 17 8
134 242 334 92 105 132 208 166 179 135 312 44 144 67 335 164 139 138 140 129 129 127 124 121 114 102 83 70 51 39 36 44 43 42 34 27 23 22 21 16 17 15 9 9
182 114 220 209 75 258 167 175 71 17 237 268 245 220 233 189 177 164 158 138 141 132 125 128 126 113 77 58 45 53 53 45 43 41 33 28 21 17 17 18 19 13 7 5
128 111 228 109 197 188 92 291 76 123 142 193 286 264 224 195 178 175 165 149 146 141 139 139 128 109 76 58 82 76 54 50 44 37 32 29 24 17 13 19 16 9 0 359
46 120 145 214 324 162 171 171 136 125 243 160 154 268 332 182 172 152 147 139 137 139 143 137 128 125 106 90 98 75 57 52 47 38 34 30 23 16 18 16 11 7 0 3
169 79 90 358 349 340 206 209 166 118 87 205 139 270 52 107 130 145 140 144 141 132 130 131 133 125 105 112 99 79 64 60 48 38 33 30 22 18 18 16 12 7 5 13
101 110 150 183 192 165 212 172 157 127 128 219 223 236 181 165 148 144 144 142 141 141 142 139 138 111 115 106 101 94 76 61 48 43 37 30 22 19 18 16 15 19 23 28
91 117 122 128 69 31 208 241 235 188 195 183 248 247 203 189 167 153 146 144 146 148 143 140 139 128 118 106 99 94 77 65 55 46 38 29 20 20 19 23 22 30 27 32
20 152 88 47 8 52 251 275 238 248 257 262 201 226 7 140 113 136 153 158 158 151 144 136 122 130 114 100 102 94 82 71 53 47 35 27 23 20 24 24 21 29 23 27
103 119 89 215 342 355 332 38 169 205 71 244 271 208 155 134 151 160 166 161 148 140 135 136 131 122 109 100 110 98 86 63 45 40 34 31 24 27 32 20 18 23 18 20
127 98 85 176 22 28 250 304 155 106 23 346 85 145 148 122 77 77 117 133 132 131 131 131 125 119 109 117 110 99 72 56 46 37 39 29 32 30 28 22 24 25 21 23
89 114 90 125 198 294 112 13 171 180 324 328 128 115 116 116 75 23 69 108 126 130 140 134 131 122 109 120 109 83 65 53 42 42 38 25 34 32 29 28 30 29 28 26
71 67 102 96 149 211 227 177 124 79 312 20 126 145 156 167 150 194 136 121 124 132 133 132 119 112 117 113 96 71 66 60 55 36 22 26 46 37 35 34 35 32 33 23
88 51 132 121 235 288 247 236 73 146 229 150 161 166 166 186 234 134 129 122 130 131 136 127 116 110 119 112 88 80 78 70 43 25 40 41 72 42 37 37 36 31 32 27
159 142 178 135 164 281 187 96 172 196 115 144 108 112 100 117 121 124 129 130 132 137 130 132 118 112 112 102 91 96 87 57 42 44 54 59 67 47 37 38 32 30 30 26
164 179 177 174 211 219 182 152 152 149 139 165 123 141 140 138 139 139 142 144 143 144 132 142 133 116 96 88 93 100 71 35 49 62 72 60 58 42 36 32 26 26 31 28
289 154 121 117 164 160 125 84 124 130 126 134 139 147 145 142 145 145 141 139 140 149 136 148 133 116 107 107 96 67 51 88 92 74 69 59 53 45 42 38 34 35 36 31
195 134 138 61 87 82 51 97 122 99 96 99 116 144 142 139 144 144 139 143 141 128 138 149 135 123 113 110 89 77 69 93 92 67 61 60 52 48 44 46 42 45 54 37
194 173 155 212 171 129 134 129 134 119 122 121 118 116 140 141 141 138 139 142 140 138 141 136 128 125 125 117 105 87 76 73 90 73 62 58 54 51 48 46 50 52 36 34